Hourly Weather Roundup
Issued by NWS Central Illinois

Home | Current Version | Previous Version | Text Only | Print | Product List | Glossary On
Versions: 1 2 3 4 5 6 7 8 9 10 11 12 13 14 15 16 17 18 19 20 21 22 23 24 25 26 27 28 29 30 31 32 33 34 35 36 37 38 39 40 41 42 43 44 45 46 47 48 49 50
000
NZUS43 KILX 191210
HWRILX

Area Weather Roundup
National Weather Service Lincoln IL
700 AM CDT TUE SEP 19 2017

NOTE:  "FAIR" indicates few or no clouds below 12,000 feet, with
       no sigificant weather and/or obstructions to visibility.


CITY           SKY/WX    TMP DP  RH WIND       PRES   REMARKS
Bloomington    CLOUDY    66  66 100 CALM      29.96R FOG
6HR MIN TEMP:  65; 6HR MAX TEMP:  66; 6HR PCP:  0.01;

Champaign      FOG       68  67  96 SW6       29.94S VSB 1/4
6HR MIN TEMP:  68; 6HR MAX TEMP:  70; 6HR PCP:  0.01;

Danville       CLOUDY    65  65 100 CALM      29.92S
6HR MIN TEMP:  64; 6HR MAX TEMP:  70; 6HR PCP:  0.07;

Decatur        FOG       67  67 100 SW5       29.95R VSB 1/4
6HR MIN TEMP:  67; 6HR MAX TEMP:  69;

Effingham      FOG       68  68 100 CALM      29.95F VSB<1/4
6HR MIN TEMP:  67; 6HR MAX TEMP:  70; 6HR PCP:  0.02;

Flora          CLOUDY    69  68  97 CALM      29.97S FOG
Galesburg      FOG       65  65 100 CALM      29.96S VSB 1/4
6HR MIN TEMP:  63; 6HR MAX TEMP:  65;

Jacksonville   FOG       64  64 100 N3        29.95R VSB<1/4
6HR MIN TEMP:  63; 6HR MAX TEMP:  67;

Lacon          FOG       60  60 100 CALM      29.95R VSB 1/4
6HR MIN TEMP:  59; 6HR MAX TEMP:  64;

Lawrenceville  MOCLDY    68  32  26 SE3       29.96R HAZE
6HR MIN TEMP:  68; 6HR MAX TEMP:  70; 6HR PCP:  0.40;

Litchfield     FOG       64  64 100 CALM      29.95R VSB<1/4
6HR MIN TEMP:  64; 6HR MAX TEMP:  68; 6HR PCP:  0.09;

$$


CITY           SKY/WX    TMP DP  RH WIND       PRES   REMARKS
Lincoln        FOG       67  67 100 CALM      29.94S VSB 3/4
6HR MIN TEMP:  67; 6HR MAX TEMP:  69;

Macomb         FOG       65  65 100 CALM      29.96S VSB 3/4
6HR MIN TEMP:  65; 6HR MAX TEMP:  67;

Mattoon        FOG       67  67 100 CALM      29.93S VSB 1/4
6HR MIN TEMP:  67; 6HR MAX TEMP:  69; 6HR PCP: TRACE;

Mt Carmel AP   CLOUDY    68  67  97 E5        29.95F FOG
6HR MIN TEMP:  67; 6HR MAX TEMP:  70;

Olney-Noble AP CLOUDY    67  65  93 CALM      29.95S FOG
Paris AP       FOG       67  67 100 SW3       29.95R THUNDER VSB 1/2
6HR MIN TEMP:  67; 6HR MAX TEMP:  70; 6HR PCP:  0.03;

Peoria         CLOUDY    67  67 100 CALM      29.95R FOG
6HR MIN TEMP:  66; 6HR MAX TEMP:  68;

Pontiac        FOG       64  63  98 CALM      29.96R VSB<1/4
6HR MIN TEMP:  64; 6HR MAX TEMP:  65; 6HR PCP:  0.05;

Rantoul        CLOUDY    67  67  99 CALM      29.94S
6HR MIN TEMP:  67; 6HR MAX TEMP:  70; 6HR PCP:  0.17;

Robinson       CLOUDY    65  65 100 CALM      29.96R
6HR MIN TEMP:  65; 6HR MAX TEMP:  69; 6HR PCP:  0.65;

Springfield    FOG       66  66 100 CALM      29.95R VSB 1/4
6HR MIN TEMP:  64; 6HR MAX TEMP:  69;

Taylorville    FOG       65  65 100 CALM      29.95S VSB<1/4
6HR MIN TEMP:  65; 6HR MAX TEMP:  68; 6HR PCP:  0.01;

$$

...REGIONAL REPORTS...


CITY           SKY/WX    TMP DP  RH WIND       PRES   REMARKS
Chicago O`Hare CLOUDY    66  63  90 N7        29.94S
Kankakee       FOG       62  61  97 CALM      29.95S VSB 1
Moline         CLOUDY    63  60  90 E5        29.95S FOG
Mount Sterling FOG       65  65 100 CALM      29.94R VSB<1/4
Mount Vernon     N/A     68  68 100 CALM      29.95  FOG
Pittsfield     FOG       62  62 100 CALM      29.95R VSB<1/4
Quincy         FOG       66  65  96 CALM      29.93S VSB 1/4
Rockford       CLOUDY    62  60  93 NE7       29.97R
$$


CITY           SKY/WX    TMP DP  RH WIND       PRES   REMARKS
Burlington     FOG       65  65 100 CALM      29.94R VSB 1/4
Cedar Rapids   FOG       61  61 100 E6        29.94R VSB 1/4
Des Moines     FOG       63  63 100 E6        29.89S VSB 1/4
Kirksville     FOG       64  64 100 E5        29.93F VSB 1/4
Ottumwa        CLOUDY    61  61 100 CALM      29.92S FOG
St Louis       FOG       66  66 100 CALM      29.95R VSB 1/2
$$


CITY           SKY/WX    TMP DP  RH WIND       PRES   REMARKS
Terre Haute    CLOUDY    69  67  93 CALM      29.95R FOG
Evansville     LGT RAIN  69  67  93 CALM      29.97R
Indianapolis   CLOUDY    68  67  96 CALM      29.95R
Lafayette      CLOUDY    66  66 100 CALM      29.93S
Madison        PTCLDY    55  54  96 NW5       29.97S
Milwaukee      MOCLDY    64  62  93 NW6       29.96S
$$






USA.gov is the U.S. government's official web portal to all federal, state and local government web resources and services.